This is the latest recevied weather packets stored in our database for station/object IW1CGW-13. If no packets are shown the sender has not sent any weather packets the latest 10 day(s).
| Time | Temp. | Humidity | Pressure | Rain* | Wind** | Luminosity | Snow |
|---|---|---|---|---|---|---|---|
| 1777912287 | 13.33° C | 64% | 1016.4 hPa | - | - | - | - |
| 1777911665 | 13.89° C | 64% | 1016.4 hPa | - | - | - | - |
| 1777911044 | 13.89° C | 64% | 1016.4 hPa | - | - | - | - |
| 1777909802 | 14.44° C | 64% | 1016.4 hPa | - | - | - | - |
| 1777909176 | 14.44° C | 63% | 1016.5 hPa | - | - | - | - |
| 1777908556 | 14.44° C | 63% | 1016.4 hPa | - | - | - | - |
| 1777907935 | 15° C | 62% | 1016.4 hPa | - | - | - | - |
| 1777907314 | 15.56° C | 61% | 1016.4 hPa | - | - | - | - |
| 1777906693 | 16.67° C | 61% | 1016.5 hPa | - | - | - | - |
| 1777906072 | 16.67° C | 63% | 1016.5 hPa | - | - | - | - |
| 1777905451 | 15.56° C | 62% | 1016.7 hPa | - | - | - | - |
| 1777904830 | 16.11° C | 61% | 1016.7 hPa | - | - | - | - |
| 1777904210 | 16.11° C | 62% | 1016.7 hPa | - | - | - | - |
| 1777903589 | 17.22° C | 60% | 1016.9 hPa | - | - | - | - |
| 1777902968 | 17.22° C | 63% | 1017 hPa | - | - | - | - |
| 1777902347 | 15.56° C | 62% | 1017.2 hPa | - | - | - | - |
| 1777901727 | 15.56° C | 63% | 1017.4 hPa | - | - | - | - |
| 1777901105 | 15° C | 63% | 1017.4 hPa | - | - | - | - |
| 1777900483 | 15° C | 63% | 1017.5 hPa | - | - | - | - |
| 1777899861 | 15.56° C | 62% | 1017.5 hPa | - | - | - | - |
| 1777899240 | 16.67° C | 61% | 1017.4 hPa | - | - | - | - |
| 1777898620 | 16.67° C | 62% | 1017.4 hPa | - | - | - | - |
| 1777897999 | 16.67° C | 62% | 1017.6 hPa | - | - | - | - |
| 1777897368 | 16.67° C | 63% | 1017.6 hPa | - | - | - | - |
| 1777896126 | 15.56° C | 63% | 1017.6 hPa | - | - | - | - |
* Rain since midnight (hover to see other rain measurements)
** Current wind speed in m/s (hover to see current wind gust speed)